FW4822 Weather Reports


Display with metric or nautical units.
time (UTC)temp
F
wind
direction
speed
MPH
gust
MPH
rain 1hr
in
rain 24hr
in
rain mn
in
humidity
%
barometer
mb
20260901171522 81 296 0.0 3.0 0.00 0.02 0.00 78 1013.7
20260901170021 81 188 0.0 3.0 0.00 0.02 0.00 79 1013.8
20260901164518 81 9 0.0 4.0 0.00 0.02 0.00 78 1013.7
20260901163017 80 236 1.0 4.0 0.00 0.06 0.00 78 1013.8
20260901161518 80 244 0.0 4.0 0.00 0.06 0.00 78 1013.9
20260901160021 80 224 0.0 5.0 0.00 0.06 0.00 80 1014.2
20260901154513 79 309 0.0 3.0 0.00 0.06 0.00 82 1014.0
20260901153010 78 313 0.0 5.0 0.00 0.12 0.00 84 1014.3
20260901151507 77 222 0.0 4.0 0.00 0.12 0.00 86 1014.2
20260901150010 76 250 2.0 6.0 0.00 0.12 0.00 88 1014.5
20260901144600 74 282 1.0 4.0 0.00 0.12 0.00 92 1014.5
20260901143109 72 283 1.0 5.0 0.00 0.12 0.00 96 1014.6
20260901141603 71 280 0.0 4.0 0.00 0.12 0.00 97 1014.6
20260901140058 70 265 0.0 4.0 0.00 0.12 0.00 98 1014.6
20260901134617 69 236 0.0 2.0 0.00 0.12 0.00 98 1014.7
20260901133058 68 259 0.0 2.0 0.00 0.12 0.00 97 1014.6
20260901131557 68 248 0.0 2.0 0.00 0.12 0.00 97 1014.7
20260901130051 68 254 0.0 0.0 0.00 0.12 0.00 97 1014.8
20260901124555 68 254 0.0 5.0 0.00 0.12 0.00 97 1015.1
20260901123048 68 282 0.0 4.0 0.00 0.12 0.00 97 1015.2
20260901121547 68 258 0.0 5.0 0.00 0.12 0.00 97 1015.2
20260901120044 68 275 0.0 2.0 0.00 0.12 0.00 97 1015.0
20260901114556 67 194 0.0 4.0 0.00 0.12 0.00 97 1015.2
20260901113044 67 255 0.0 6.0 0.00 0.12 0.00 97 1015.2
20260901111542 67 249 0.0 4.0 0.00 0.12 0.00 97 1015.1
20260901110043 67 259 0.0 4.0 0.00 0.12 0.00 97 1015.0
20260901104539 67 275 0.0 3.0 0.00 0.12 0.00 97 1015.2
20260901103038 67 238 0.0 2.0 0.00 0.12 0.00 97 1015.0
20260901101547 67 238 0.0 2.0 0.00 0.12 0.00 97 1015.1
20260901100048 67 238 0.0 3.0 0.00 0.12 0.00 97 1015.0
20260901094546 67 236 0.0 2.0 0.00 0.12 0.00 97 1015.2
20260901093045 67 236 0.0 2.0 0.00 0.12 0.00 97 1015.1
20260901091546 67 238 0.0 1.0 0.00 0.12 0.00 97 1015.1
20260901090037 67 242 0.0 4.0 0.00 0.12 0.00 97 1015.2
20260901084536 67 244 0.0 2.0 0.00 0.12 0.00 97 1015.3
20260901083035 67 238 0.0 1.0 0.00 0.12 0.00 97 1015.4
20260901081541 67 240 0.0 0.0 0.00 0.12 0.00 97 1015.6
20260901080038 67 240 0.0 1.0 0.00 0.12 0.00 97 1015.6
20260901074537 67 240 0.0 0.0 0.00 0.12 0.00 97 1015.8
20260901073037 67 240 0.0 0.0 0.00 0.12 0.00 97 1015.7
20260901071535 67 240 0.0 0.0 0.01 0.12 0.00 97 1016.1
20260901070036 67 240 0.0 0.0 0.01 0.12 0.00 97 1016.1
20260901064531 67 240 0.0 1.0 0.01 0.12 0.00 97 1016.3
20260901063037 67 240 0.0 0.0 0.01 0.12 0.12 97 1016.3
20260901061535 67 240 0.0 0.0 0.01 0.12 0.12 97 1016.4
20260901060034 67 240 0.0 1.0 0.00 0.11 0.11 97 1016.5
20260901054536 67 221 0.0 0.0 0.00 0.11 0.11 96 1016.4
20260901053033 67 221 0.0 0.0 0.00 0.11 0.11 97 1016.6
20260901051523 67 221 0.0 0.0 0.00 0.11 0.11 97 1016.7
20260901050023 68 221 0.0 0.0 0.00 0.11 0.11 96 1016.8
20260901044527 68 221 0.0 0.0 0.00 0.11 0.11 96 1016.6
20260901043024 68 221 0.0 0.0 0.00 0.12 0.11 96 1016.7
20260901041531 67 221 0.0 0.0 0.00 0.12 0.11 96 1016.6
20260901040029 68 221 0.0 0.0 0.00 0.12 0.11 96 1016.8
20260901034530 68 221 0.0 0.0 0.00 0.12 0.11 96 1017.0
20260901033028 68 221 0.0 0.0 0.00 0.12 0.11 96 1017.1
20260901031530 68 221 0.0 0.0 0.00 0.12 0.11 96 1017.0
20260901030025 68 221 0.0 0.0 0.00 0.12 0.11 96 1017.2
20260901024524 68 221 0.0 0.0 0.00 0.12 0.11 96 1017.3
20260901023025 68 221 0.0 0.0 0.00 0.12 0.11 96 1017.3
20260901021529 68 221 0.0 0.0 0.00 0.12 0.11 96 1017.4
20260901020029 68 221 0.0 0.0 0.00 0.12 0.11 96 1017.6
20260901014529 68 221 0.0 0.0 0.00 0.12 0.11 95 1017.7
20260901013042 68 221 0.0 0.0 0.00 0.12 0.11 95 1017.6
20260901011530 68 220 0.0 1.0 0.00 0.12 0.11 95 1017.8
20260901010022 69 220 0.0 1.0 0.00 0.12 0.11 95 1017.7
20260901004520 69 220 0.0 0.0 0.00 0.12 0.11 94 1017.7
20260901003019 69 220 0.0 0.0 0.00 0.12 0.11 94 1017.3
20260901001521 69 220 0.0 4.0 0.00 0.12 0.11 94 1017.0
20260901000028 69 218 0.0 2.0 0.00 0.12 0.11 94 1017.0
20260831234520 69 200 0.0 0.0 0.00 0.12 0.11 94 1016.9
20260831233024 69 199 0.0 3.0 0.00 0.12 0.11 93 1016.9
20260831231517 69 199 0.0 3.0 0.00 0.12 0.11 93 1016.9
20260831230018 70 198 0.0 3.0 0.00 0.12 0.11 93 1017.0
20260831224514 70 185 0.0 2.0 0.00 0.12 0.11 92 1017.1
20260831223013 70 183 0.0 2.0 0.00 0.12 0.11 92 1017.2
20260831221513 70 234 1.0 6.0 0.00 0.12 0.11 91 1017.3
20260831220012 71 244 0.0 0.0 0.00 0.12 0.11 91 1017.4
20260831214517 71 248 0.0 3.0 0.00 0.12 0.11 90 1017.5
20260831213010 70 221 1.0 4.0 0.00 0.12 0.11 90 1017.6
20260831211511 70 246 0.0 3.0 0.00 0.12 0.11 90 1017.6
20260831210003 70 234 0.0 3.0 0.00 0.12 0.11 90 1017.8
20260831204605 70 210 0.0 2.0 0.00 0.12 0.11 91 1018.1
20260831203136 70 232 0.0 3.0 0.00 0.12 0.11 91 1018.0
20260831201512 70 187 1.0 4.0 0.00 0.12 0.11 91 1018.1
20260831200004 69 224 0.0 4.0 0.00 0.12 0.11 92 1017.9
20260831194502 69 240 1.0 5.0 0.00 0.12 0.11 91 1018.0
20260831193101 69 190 0.0 6.0 0.00 0.12 0.11 92 1018.1
20260831193000 69 189 0.0 7.0 0.00 0.12 0.11 93 1018.1
20260831191558 68 244 1.0 7.0 0.00 0.12 0.11 94 1018.4
20260831190051 67 200 2.0 8.0 0.00 0.12 0.11 95 1018.4
20260831184548 66 213 1.0 6.0 0.00 0.12 0.11 95 1018.5
20260831183048 66 199 2.0 7.0 0.00 0.12 0.11 96 1018.7
20260831181553 66 194 1.0 5.0 0.00 0.12 0.11 96 1018.7
20260831180046 65 184 2.0 6.0 0.01 0.12 0.11 97 1018.8
20260831174550 65 214 2.0 6.0 0.01 0.12 0.11 96 1019.0
20260831173043 65 192 1.0 5.0 0.02 0.12 0.11 97 1019.0